Flag for Norway Weather past 2 weeks in Farsund, Norway

Now
41 °F

Quite cool.


Feels Like: 41 °F
Forecast: 50 / 57 °F
Wind: 1 mph from East

Location: Lista Fyr

Current Time: Sep 23, 2014 at 6:39:47 AM

Latest Report: Sep 23, 2014 at 5:00 AM


Visibility: N/A

Pressure: 30.01 "Hg

Humidity: 85%

Dew point: 37 °F

Location of FarsundLocation

Historic Weather in Farsund — Graph

°F

Farsund temperature yesterday

Maximum temperature yesterday: 59 °F (at 4:00 PM)
Minimum temperature yesterday: 48 °F (at 8:00 AM)
Average temperature yesterday: 54 °F

Past Weeks' High & Low Weather Summary

 TemperatureHumidityPressure
High69 °F (Sep 14, 2:00 PM)95% (Sep 12, 5:00 AM)30.45 "Hg (Sep 12, 5:00 AM)
Low41 °F (Sep 23, 5:00 AM)40% (Sep 22, 2:00 PM)29.80 "Hg (Sep 8, 9:00 AM)
Average59 °F72%30.14 "Hg
* Reported Sep 8 5:00 AM — Sep 23 5:00 AM, Farsund, Weather by CustomWeather, © 2014

Note: Actual official high and low records may vary slightly from our data, if they occured in-between our weather recording intervals... More about our weather records

Advertising

Farsund weather history for previous 24 hours

 ConditionsComfort  
Time TempWeatherWind HumidityBarometerVisibility
5:00 AM
Sep 23
41 °FQuite cool.1 mph85%30.01 "HgN/A
4:00 AM43 °FQuite cool.2 mph83%30.02 "HgN/A
3:00 AM44 °FQuite cool.3 mph77%30.03 "HgN/A
2:00 AM48 °FCool.3 mph74%30.03 "HgN/A
1:00 AM51 °FCool.2 mph70%30.04 "HgN/A
12:00 AM52 °FCool.6 mph66%30.04 "HgN/A
11:00 PM
Sep 22
54 °FCool.6 mph62%30.04 "HgN/A
10:00 PM56 °FRefreshingly cool.6 mph51%30.03 "HgN/A
9:00 PM56 °FRefreshingly cool.6 mph56%30.03 "HgN/A
8:00 PM56 °FOvercast.7 mph60%30.03 "Hg25 mi
7:00 PM57 °FCool.6 mph61%30.03 "HgN/A
6:00 PM57 °FCool.8 mph62%30.03 "HgN/A
5:00 PM58 °FRefreshingly cool.10 mph56%30.03 "HgN/A
4:00 PM59 °FRefreshingly cool.9 mph41%30.04 "HgN/A
3:00 PM59 °FRefreshingly cool.8 mph40%30.05 "HgN/A
2:00 PM58 °FPartly sunny.5 mph40%30.06 "Hg19 mi
1:00 PM57 °FRefreshingly cool.7 mph45%30.06 "HgN/A
12:00 PM56 °FRefreshingly cool.5 mph46%30.06 "HgN/A
11:00 AM55 °FPassing clouds.2 mph54%30.07 "Hg19 mi
10:00 AM54 °FCool.3 mph59%30.06 "HgN/A
9:00 AM52 °FCool.6 mph61%30.04 "HgN/A
8:00 AM48 °FSunny.5 mph67%30.03 "Hg19 mi
7:00 AM50 °FCool.5 mph55%30.01 "HgN/A
6:00 AM50 °FCool.7 mph59%29.99 "HgN/A
Weather by CustomWeather, © 2014

See weather overviewHow to use our weather pages